Student's Login

Local Time

LGIR WEATHER

[source: ADDS]
METAR
LGIR 202120Z 32007KT 9999 FEW025 20/19 Q1016 NOSIG =
TAF LGIR 201700Z 2018/2118 33008KT 9999 FEW020 BECMG 2019/2021 FEW012 SCT020
TAF
TAF LGIR 201700Z 2018/2118 33008KT 9999 FEW020 BECMG 2019/2021 FEW012 SCT020 =

Czech sport aircraft

Cretan Eagle Aviation Ltd. is proud to be appointed as an authorized Czech Sport Aircraft Promoter for Greece
and Cyprus. Please click on the link or give us a call for any additional information on Czech Sport Aircraft.

 

 

On-line PPL QUIZ

Student members can join our free on-line database to practice on PPL quizzes and get ready for the real
exams. Becoming a member and getting access to our system is FREE for all of our students.

 

Paypal Verified

Payments for any Course can be made by Bank Transfer, Cash and PayPal secure payment.

 

Go to top